Hourly Data Report for December 21, 2003

SHERBROOKE A
QUEBEC

45°26'00.000" N
71°41'00.000" W
241.40 m
7028124
71610
YSC

Download Data

Hourly Data (December 2003)
Hourly Data Report for December 21, 2003
TIME
LST
Temp Definition
°C
Dew Point Definition
°C
Rel Hum Definition
%
Precip. Amount Definition
mm

Wind Dir Definition
10's deg

Wind Spd Definition
km/h
Visibility Definition
km
Stn Press Definition
kPa
Hmdx Definition


Wind Chill Definition


Weather Definition


00:00 -14.3 -16.2 85   21 7 6.4 98.85   -19  
01:00 -15.8 -17.0 90   17 6 12.9 98.88   -20  
02:00 -17.5 -18.7 90   19 6 8.0 98.92   -22  
03:00 -22.2 -24.3 83   23 4 15.0 98.93   -26  
04:00 -19.8 -24.0 69     0 15.0 98.87      
05:00 -19.6 -24.0 68     0 15.0 98.82      
06:00 -18.4 -22.1 73     0 15.0 98.77      
07:00 -17.2 -20.8 74     0 15.0 98.73      
08:00 -14.4 -17.4 78     0 24.1 98.61     Mostly Cloudy
09:00 -12.8 -15.5 80     0 24.1 98.54     Snow Showers
10:00 -11.8 -14.0 84     0 2.4 98.46     Snow
11:00 -10.6 -12.2 88     0 1.6 98.32     Snow
12:00 -6.6 -8.2 88   23 13 1.6 98.21   -12 Snow
13:00 -6.0 -7.3 90   23 11 1.2 98.13   -11 Snow
14:00 -5.4 -6.6 91   23 9 1.2 98.13   -9 Snow
15:00 -4.9 -6.2 91   22 13 2.4 98.16   -10 Snow
16:00 -4.3 -5.7 90   23 15 8.0 98.17   -10 Snow
17:00 -3.9 -5.3 90   23 11 16.1 98.21   -8 Snow
18:00 -3.4 -4.9 89   25 11 15.0 98.25   -8  
19:00 -3.1 -4.9 87   23 7 15.0 98.29   -6  
20:00 -2.9 -4.8 87   24 7 15.0 98.31   -6 Snow
21:00 -2.6 -4.6 86   24 7 15.0 98.29   -5 Snow
22:00 -2.2 -4.5 84   23 6 15.0 98.33   -5  
23:00 -2.0 -4.2 85   23 7 15.0 98.32   -5  

Notes on Data Quality.

Legend

  • E = Estimated
  • M = Missing
  • NA = Not Available*
  • [empty] = Indicates an unobserved value
Date modified: